Location: La Brionne
(46.1728°N, 1.7849°E)
Time: 06:33:24
(UTC+00:00)

Cosmos 1544 Rocket - Pass Details

Date: 16 June 2021
Orbit: 604 x 631 km, 82.5° (Epoch: 31 July)

Event Time Altitude Azimuth Distance (km) Brightness Sun altitude
Rises 21:59:08 0° 346° (NNW) 2,936 8.6 -15.8°
Reaches altitude 10° 22:01:25 10° 342° (NNW) 2,022 7.5 -15.9°
Maximum altitude 22:05:46 52° 266° (W) 783 4.2 -16.3°
Enters shadow 22:08:30 21° 198° (SSW) 1,405 5.0 -16.5°
